Location: Cabri�res
(43.7840°N, 5.4986°E)
Time: 03:02:41
(UTC+00:00)

STARLINK-1244 - Pass Details

Date: 09 April 2020
Orbit: 549 x 551 km, 53.0° (Epoch: 02 June)

Event Time Altitude Azimuth Distance (km) Brightness Sun altitude
Rises 19:59:35 0° 305° (NW) 2,777 8.9 -18.3°
Reaches altitude 10° 20:01:54 10° 311° (NW) 1,878 7.6 -18.7°
Maximum altitude 20:06:04 51° 27° (NNE) 727 4.2 -19.3°
Enters shadow 20:07:13 39° 75° (ENE) 869 4.3 -19.5°
